Location: Knowlton
(51.2333°N, 1.2667°E)
Time: 03:20:54
(UTC+00:00)

ARIANE 5 R/B - Pass Details

Date: 18 April 2021
Orbit: 620 x 656 km, 98.1° (Epoch: 02 May)

Event Time Altitude Azimuth Distance (km) Brightness Sun altitude
Exits shadow 21:46:52 27° 218° (SW) 1,239 3.9 -21.8°
Maximum altitude 21:48:34 37° 262° (W) 992 3.8 -21.9°
Drops below altitude 10° 21:52:41 10° 331° (NNW) 2,024 6.3 -22.3°
Sets 21:55:01 0° 340° (NNW) 2,931 7.4 -22.5°
